Tracking 20475 objects as of 26-Feb-2020
HD Live streaming from Space Station
objects crossing your sky now

COSMOS 249 DEB

Track COSMOS 249 DEB now!
10-day predictions


NORAD ID: 18602
Int'l Code: 1968-091DG
Perigee: 731.2 km
Apogee: 1,814.0 km
Inclination: 62.2 °
Period: 110.8 minutes
Semi major axis: 7643 km
RCS: 0.0163 m2 (small)
Launch date: October 20, 1968
Source: Commonwealth of Independent States (former USSR) (CIS)
Launch site: TYURATAM MISSILE AND SPACE COMPLEX (TTMTR)

Note: This is SATELLITE DEBRIS
aabbcc
Your satellite tracking list
Your tracking list is empty




NASA's NSSDC Master Catalog

Two Line Element Set (TLE):
1 18602U 68091DG  20056.74879413 -.00000610  00000-0 -53701-3 0  9995
2 18602  62.2302 187.1579 0708310  92.9751  48.4700 12.99132490345896
Source of the keplerian elements: AFSPC